Flag for Brazil Weather past 2 weeks in Ribeirão Prêto, São Paulo, Brazil

Now
79 °F

Scattered clouds.


Feels Like: 80 °F
Forecast: 69 / 85 °F
Wind: No wind

Location: Leite Lopes / Ribeir

Current Time: Sep 21, 2014 at 3:39:11 PM

Latest Report: Sep 21, 2014 at 3:00 PM


Visibility: N/A

Pressure: 29.95 "Hg

Humidity: 54%

Dew point: 61 °F

Location of Ribeirão PrêtoLocation

Historic Weather in Ribeirão Prêto — Graph

°F

Ribeirão Prêto temperature yesterday

Maximum temperature yesterday: 75 °F (at 10:00 AM)
Minimum temperature yesterday: 68 °F (at 1:00 AM)
Average temperature yesterday: 69 °F

Past Weeks' High & Low Weather Summary

 TemperatureHumidityPressure
High99 °F (Sep 18, 2:00 PM)88% (Sep 19, 8:00 PM)30.18 "Hg (Sep 19, 8:00 PM)
Low57 °F (Sep 7, 6:00 AM)12% (Sep 11, 2:00 PM)29.80 "Hg (Sep 19, 3:00 PM)
Average78 °F42%30.01 "Hg
* Reported Sep 6 2:00 PM — Sep 21 2:00 PM, Ribeirão Prêto, Weather by CustomWeather, © 2014

Note: Actual official high and low records may vary slightly from our data, if they occured in-between our weather recording intervals... More about our weather records

Advertising

Ribeirão Prêto weather history for previous 24 hours

 ConditionsComfort  
Time TempWeatherWind HumidityBarometerVisibility
2:00 PM
Sep 21
79 °FBroken clouds.No wind58%29.98 "HgN/A
1:00 PM75 °FPartly sunny.5 mph69%30.01 "HgN/A
12:00 PM73 °FPartly sunny.7 mph74%30.01 "Hg6 mi
11:00 AM70 °FMostly cloudy.7 mph83%30.04 "Hg4 mi
10:00 AM70 °FFog.5 mph83%30.04 "Hg3 mi
9:00 AM70 °FFog.No wind78%30.01 "Hg3 mi
8:00 AM68 °FFog.No wind88%30.01 "Hg3 mi
7:00 AM66 °FFog.No wind88%30.01 "Hg3 mi
6:00 AM66 °FFog.No wind88%30.01 "Hg3 mi
5:00 AM66 °FPassing clouds.2 mph88%29.98 "HgN/A
4:00 AM66 °FPassing clouds.No wind88%29.95 "HgN/A
3:00 AM66 °FClear.5 mph88%29.95 "Hg10 mi
2:00 AM66 °FClear.2 mph88%29.98 "Hg10 mi
1:00 AM68 °FClear.3 mph88%30.01 "Hg10 mi
12:00 AM68 °FClear.No wind88%30.01 "Hg10 mi
11:00 PM
Sep 20
68 °FClear.No wind83%30.01 "Hg10 mi
10:00 PM68 °FClear.3 mph88%30.01 "Hg6 mi
9:00 PM68 °FClear.3 mph88%30.04 "Hg6 mi
8:00 PM68 °FOvercast.No wind83%30.04 "Hg6 mi
7:00 PM68 °FLight rain. Fog.No wind83%30.04 "Hg3 mi
6:00 PM68 °FLight rain. Mostly cloudy.3 mph83%30.04 "Hg3 mi
5:00 PM72 °FMore clouds than sun.8 mph78%30.01 "Hg4 mi
4:00 PM72 °FMore clouds than sun.7 mph83%30.01 "Hg4 mi
3:00 PM72 °FLight rain. More clouds than sun.6 mph83%30.01 "Hg4 mi
Weather by CustomWeather, © 2014

See weather overviewHow to use our weather pages